Orbital Elements
Epoch 2012 Feb. 3.0 TT = JDT 2455960.5
T 2012 Feb. 19.08067 TT MPC
q 2.5510618 (2000.0) P Q
z +0.0129856 Peri. 300.41317 -0.94388154 -0.19063481
+/-0.0000000 Node 129.95801 +0.00106732 +0.81484919
e 0.9668730 Incl. 159.39819 -0.33028244 +0.54742960
From 74 observations 2012 Mar. 16-Apr. 25, mean residual 0".6.
|